Time,TemperatureF,DewpointF,PressureIn,WindDirection,WindDirectionDegrees,WindSpeedMPH,WindSpeedGustMPH,Humidity,HourlyPrecipIn,Conditions,Clouds,dailyrainin,SoftwareType,DateUTC
2013-06-28 00:09:00,66.3,65.0,29.59,East,84,0.0,-999.0,95,-99.99,,,0.33,weatherlink.com 1.10,2013-06-28 04:09:00,
2013-06-28 00:27:00,66.1,65.0,29.59,East,84,4.0,-999.0,95,-99.99,,,0.34,weatherlink.com 1.10,2013-06-28 04:27:00,
2013-06-28 00:42:00,66.2,65.0,29.61,WSW,246,0.0,-999.0,96,-99.99,,,0.34,weatherlink.com 1.10,2013-06-28 04:42:00,
2013-06-28 00:57:00,66.3,65.0,29.60,WSW,246,0.0,-999.0,96,-99.99,,,0.34,weatherlink.com 1.10,2013-06-28 04:57:00,
2013-06-28 01:12:00,66.4,65.0,29.59,WSW,246,0.0,-999.0,96,-99.99,,,0.34,weatherlink.com 1.10,2013-06-28 05:12:00,
2013-06-28 01:27:00,66.4,65.0,29.59,WSW,246,0.0,-999.0,96,-99.99,,,0.34,weatherlink.com 1.10,2013-06-28 05:27:00,
2013-06-28 01:42:00,66.4,65.0,29.59,WSW,246,0.0,-999.0,96,-99.99,,,0.34,weatherlink.com 1.10,2013-06-28 05:42:00,
2013-06-28 01:57:00,66.2,65.0,29.59,WSW,246,0.0,-999.0,96,-99.99,,,0.34,weatherlink.com 1.10,2013-06-28 05:57:00,
2013-06-28 02:12:00,66.2,65.0,29.58,WSW,246,0.0,-999.0,96,-99.99,,,0.34,weatherlink.com 1.10,2013-06-28 06:12:00,
2013-06-28 02:27:00,66.2,65.0,29.57,WSW,246,0.0,-999.0,96,-99.99,,,0.34,weatherlink.com 1.10,2013-06-28 06:27:00,
2013-06-28 02:42:00,66.3,65.0,29.57,WSW,246,0.0,-999.0,96,-99.99,,,0.34,weatherlink.com 1.10,2013-06-28 06:42:00,
2013-06-28 02:57:00,66.4,65.0,29.56,WSW,246,1.0,-999.0,96,-99.99,,,0.34,weatherlink.com 1.10,2013-06-28 06:57:00,
2013-06-28 03:12:00,66.4,65.0,29.55,WSW,246,1.0,-999.0,96,-99.99,,,0.34,weatherlink.com 1.10,2013-06-28 07:12:00,
2013-06-28 04:28:00,66.4,65.0,29.54,WSW,241,0.0,-999.0,96,-99.99,,,0.00,weatherlink.com 1.10,2013-06-28 08:28:00,
2013-06-28 04:43:00,66.4,66.0,29.54,WSW,241,0.0,-999.0,97,-99.99,,,0.00,weatherlink.com 1.10,2013-06-28 08:43:00,
2013-06-28 04:58:00,66.4,66.0,29.55,WSW,240,0.0,-999.0,97,-99.99,,,0.00,weatherlink.com 1.10,2013-06-28 08:58:00,
2013-06-28 05:13:00,66.3,66.0,29.54,WSW,241,0.0,-999.0,97,-99.99,,,0.00,weatherlink.com 1.10,2013-06-28 09:13:00,
2013-06-28 05:28:00,66.4,66.0,29.55,WSW,241,0.0,-999.0,97,-99.99,,,0.00,weatherlink.com 1.10,2013-06-28 09:28:00,
2013-06-28 05:43:00,66.4,66.0,29.54,WSW,241,2.0,-999.0,97,-99.99,,,0.00,weatherlink.com 1.10,2013-06-28 09:43:00,
2013-06-28 05:58:00,66.5,66.0,29.54,WSW,241,3.0,-999.0,97,-99.99,,,0.00,weatherlink.com 1.10,2013-06-28 09:58:00,
2013-06-28 06:13:00,66.6,66.0,29.54,WSW,241,0.0,-999.0,97,-99.99,,,0.00,weatherlink.com 1.10,2013-06-28 10:13:00,
2013-06-28 06:28:00,66.7,66.0,29.54,WSW,241,0.0,-999.0,97,-99.99,,,0.00,weatherlink.com 1.10,2013-06-28 10:28:00,
2013-06-28 06:43:00,66.8,66.0,29.54,WSW,241,0.0,-999.0,97,-99.99,,,0.00,weatherlink.com 1.10,2013-06-28 10:43:00,
2013-06-28 06:58:00,66.8,66.0,29.54,WSW,241,0.0,-999.0,96,-99.99,,,0.00,weatherlink.com 1.10,2013-06-28 10:58:00,
2013-06-28 07:13:00,66.8,66.0,29.55,WSW,241,0.0,-999.0,96,-99.99,,,0.00,weatherlink.com 1.10,2013-06-28 11:13:00,
2013-06-28 07:28:00,66.9,66.0,29.54,WSW,241,0.0,-999.0,96,-99.99,,,0.00,weatherlink.com 1.10,2013-06-28 11:28:00,
2013-06-28 07:43:00,66.9,66.0,29.54,WSW,241,0.0,-999.0,96,-99.99,,,0.02,weatherlink.com 1.10,2013-06-28 11:43:00,
2013-06-28 07:58:00,67.1,66.0,29.54,WSW,241,0.0,-999.0,97,-99.99,,,0.03,weatherlink.com 1.10,2013-06-28 11:58:00,
2013-06-28 08:13:00,67.3,67.0,29.54,WSW,241,0.0,-999.0,97,-99.99,,,0.04,weatherlink.com 1.10,2013-06-28 12:13:00,
2013-06-28 08:28:00,67.2,66.0,29.53,WSW,241,0.0,-999.0,97,-99.99,,,0.05,weatherlink.com 1.10,2013-06-28 12:28:00,
2013-06-28 08:43:00,66.9,66.0,29.54,WSW,244,4.0,-999.0,96,-99.99,,,0.06,weatherlink.com 1.10,2013-06-28 12:43:00,
2013-06-28 09:09:00,66.2,65.0,29.53,West,263,0.0,-999.0,96,-99.99,,,0.07,weatherlink.com 1.10,2013-06-28 13:09:00,
2013-06-28 09:14:00,66.2,65.0,29.53,West,263,0.0,-999.0,97,-99.99,,,0.07,weatherlink.com 1.10,2013-06-28 13:14:00,
2013-06-28 09:29:00,66.1,65.0,29.53,West,263,2.0,-999.0,97,-99.99,,,0.07,weatherlink.com 1.10,2013-06-28 13:29:00,
2013-06-28 09:44:00,65.8,65.0,29.53,West,263,1.0,-999.0,97,-99.99,,,0.07,weatherlink.com 1.10,2013-06-28 13:44:00,
2013-06-28 09:59:00,65.3,65.0,29.53,WNW,287,0.0,-999.0,97,-99.99,,,0.07,weatherlink.com 1.10,2013-06-28 13:59:00,
2013-06-28 10:14:00,65.4,65.0,29.53,WNW,288,0.0,-999.0,97,-99.99,,,0.08,weatherlink.com 1.10,2013-06-28 14:14:00,
2013-06-28 10:29:00,65.2,64.0,29.53,WNW,288,0.0,-999.0,97,-99.99,,,0.09,weatherlink.com 1.10,2013-06-28 14:29:00,
2013-06-28 10:44:00,64.9,64.0,29.52,WNW,288,0.0,-999.0,97,-99.99,,,0.09,weatherlink.com 1.10,2013-06-28 14:44:00,
2013-06-28 10:59:00,65.1,64.0,29.52,WNW,288,0.0,-999.0,97,-99.99,,,0.09,weatherlink.com 1.10,2013-06-28 14:59:00,
2013-06-28 11:14:00,65.0,64.0,29.52,WNW,288,0.0,-999.0,96,-99.99,,,0.09,weatherlink.com 1.10,2013-06-28 15:14:00,
2013-06-28 11:29:00,64.6,64.0,29.52,WNW,288,0.0,-999.0,96,-99.99,,,0.09,weatherlink.com 1.10,2013-06-28 15:29:00,
2013-06-28 11:44:00,64.8,64.0,29.52,WNW,288,3.0,-999.0,97,-99.99,,,0.09,weatherlink.com 1.10,2013-06-28 15:44:00,
2013-06-28 11:59:00,64.7,64.0,29.52,WNW,288,0.0,-999.0,96,-99.99,,,0.09,weatherlink.com 1.10,2013-06-28 15:59:00,
2013-06-28 12:14:00,64.9,64.0,29.52,WNW,288,0.0,-999.0,96,-99.99,,,0.09,weatherlink.com 1.10,2013-06-28 16:14:00,
2013-06-28 12:28:00,64.9,64.0,29.52,WNW,288,0.0,-999.0,96,-99.99,,,0.09,weatherlink.com 1.10,2013-06-28 16:28:00,
2013-06-28 12:44:00,64.7,64.0,29.52,WNW,288,1.0,-999.0,96,-99.99,,,0.09,weatherlink.com 1.10,2013-06-28 16:44:00,
2013-06-28 12:59:00,64.7,64.0,29.52,WNW,288,0.0,-999.0,96,-99.99,,,0.09,weatherlink.com 1.10,2013-06-28 16:59:00,
2013-06-28 13:14:00,64.6,64.0,29.52,WNW,288,2.0,-999.0,96,-99.99,,,0.09,weatherlink.com 1.10,2013-06-28 17:14:00,
2013-06-28 13:29:00,64.3,63.0,29.52,WNW,288,0.0,-999.0,96,-99.99,,,0.09,weatherlink.com 1.10,2013-06-28 17:29:00,
2013-06-28 13:44:00,64.7,64.0,29.51,WNW,288,0.0,-999.0,96,-99.99,,,0.09,weatherlink.com 1.10,2013-06-28 17:44:00,
2013-06-28 13:59:00,64.4,63.0,29.51,WNW,288,0.0,-999.0,95,-99.99,,,0.09,weatherlink.com 1.10,2013-06-28 17:59:00,
2013-06-28 14:14:00,64.4,63.0,29.52,WNW,288,3.0,-999.0,96,-99.99,,,0.09,weatherlink.com 1.10,2013-06-28 18:14:00,
2013-06-28 14:29:00,64.1,63.0,29.52,WNW,288,3.0,-999.0,95,-99.99,,,0.09,weatherlink.com 1.10,2013-06-28 18:29:00,
2013-06-28 14:44:00,64.1,63.0,29.52,WNW,288,1.0,-999.0,95,-99.99,,,0.09,weatherlink.com 1.10,2013-06-28 18:44:00,
2013-06-28 14:59:00,64.1,63.0,29.52,WNW,288,0.0,-999.0,95,-99.99,,,0.10,weatherlink.com 1.10,2013-06-28 18:59:00,
2013-06-28 15:14:00,63.9,63.0,29.53,WNW,288,0.0,-999.0,95,-99.99,,,0.17,weatherlink.com 1.10,2013-06-28 19:14:00,
2013-06-28 15:29:00,63.8,63.0,29.52,WNW,288,2.0,-999.0,96,-99.99,,,0.23,weatherlink.com 1.10,2013-06-28 19:29:00,
2013-06-28 15:44:00,63.6,63.0,29.52,WNW,288,0.0,-999.0,96,-99.99,,,0.28,weatherlink.com 1.10,2013-06-28 19:44:00,
2013-06-28 15:59:00,63.4,62.0,29.51,WNW,288,1.0,-999.0,96,-99.99,,,0.30,weatherlink.com 1.10,2013-06-28 19:59:00,
2013-06-28 16:14:00,64.0,63.0,29.51,WNW,294,4.0,-999.0,97,-99.99,,,0.31,weatherlink.com 1.10,2013-06-28 20:14:00,
2013-06-28 16:29:00,63.8,63.0,29.51,WNW,294,0.0,-999.0,97,-99.99,,,0.32,weatherlink.com 1.10,2013-06-28 20:29:00,
2013-06-28 16:44:00,63.5,62.0,29.51,WNW,296,0.0,-999.0,96,-99.99,,,0.32,weatherlink.com 1.10,2013-06-28 20:44:00,
2013-06-28 16:59:00,63.3,62.0,29.50,NW,309,5.0,-999.0,96,-99.99,,,0.32,weatherlink.com 1.10,2013-06-28 20:59:00,
2013-06-28 17:14:00,63.6,63.0,29.50,WNW,298,3.0,-999.0,96,-99.99,,,0.33,weatherlink.com 1.10,2013-06-28 21:14:00,
2013-06-28 17:29:00,63.2,62.0,29.50,WNW,296,0.0,-999.0,96,-99.99,,,0.33,weatherlink.com 1.10,2013-06-28 21:29:00,
2013-06-28 17:44:00,62.8,62.0,29.51,NW,309,4.0,-999.0,96,-99.99,,,0.33,weatherlink.com 1.10,2013-06-28 21:44:00,
2013-06-28 17:59:00,62.5,61.0,29.51,NE,34,4.0,-999.0,96,-99.99,,,0.33,weatherlink.com 1.10,2013-06-28 21:59:00,
2013-06-28 18:14:00,62.4,61.0,29.52,North,360,0.0,-999.0,96,-99.99,,,0.33,weatherlink.com 1.10,2013-06-28 22:14:00,
2013-06-28 18:29:00,62.3,61.0,29.52,North,355,0.0,-999.0,96,-99.99,,,0.33,weatherlink.com 1.10,2013-06-28 22:29:00,
2013-06-28 18:44:00,62.0,61.0,29.52,NW,324,2.0,-999.0,96,-99.99,,,0.33,weatherlink.com 1.10,2013-06-28 22:44:00,
2013-06-28 18:59:00,62.0,61.0,29.53,NW,321,0.0,-999.0,96,-99.99,,,0.33,weatherlink.com 1.10,2013-06-28 22:59:00,
2013-06-28 19:14:00,61.9,61.0,29.53,NW,322,2.0,-999.0,96,-99.99,,,0.33,weatherlink.com 1.10,2013-06-28 23:14:00,
2013-06-28 19:29:00,61.9,61.0,29.53,NW,322,0.0,-999.0,96,-99.99,,,0.33,weatherlink.com 1.10,2013-06-28 23:29:00,
2013-06-28 19:44:00,61.9,61.0,29.52,NW,322,1.0,-999.0,97,-99.99,,,0.33,weatherlink.com 1.10,2013-06-28 23:44:00,
2013-06-28 20:11:00,61.8,61.0,29.53,NW,322,0.0,-999.0,97,-99.99,,,0.34,weatherlink.com 1.10,2013-06-29 00:11:00,
2013-06-28 20:29:00,61.8,61.0,29.53,NW,322,0.0,-999.0,97,-99.99,,,0.34,weatherlink.com 1.10,2013-06-29 00:29:00,
2013-06-28 20:44:00,61.8,61.0,29.52,NW,322,0.0,-999.0,97,-99.99,,,0.34,weatherlink.com 1.10,2013-06-29 00:44:00,
2013-06-28 20:59:00,61.7,61.0,29.52,NW,322,0.0,-999.0,97,-99.99,,,0.35,weatherlink.com 1.10,2013-06-29 00:59:00,
2013-06-28 21:14:00,61.6,61.0,29.52,NW,322,0.0,-999.0,97,-99.99,,,0.35,weatherlink.com 1.10,2013-06-29 01:14:00,
2013-06-28 21:29:00,61.7,61.0,29.52,NW,322,0.0,-999.0,97,-99.99,,,0.35,weatherlink.com 1.10,2013-06-29 01:29:00,
2013-06-28 21:44:00,61.7,61.0,29.53,NW,322,0.0,-999.0,97,-99.99,,,0.35,weatherlink.com 1.10,2013-06-29 01:44:00,
2013-06-28 21:59:00,61.8,61.0,29.53,NW,322,0.0,-999.0,97,-99.99,,,0.35,weatherlink.com 1.10,2013-06-29 01:59:00,
2013-06-28 22:14:00,61.7,61.0,29.53,NW,322,0.0,-999.0,97,-99.99,,,0.35,weatherlink.com 1.10,2013-06-29 02:14:00,
2013-06-28 22:29:00,61.8,61.0,29.53,NW,322,0.0,-999.0,97,-99.99,,,0.35,weatherlink.com 1.10,2013-06-29 02:29:00,
2013-06-28 22:44:00,61.9,61.0,29.54,NW,322,0.0,-999.0,97,-99.99,,,0.35,weatherlink.com 1.10,2013-06-29 02:44:00,
2013-06-28 22:59:00,61.8,61.0,29.54,NW,322,0.0,-999.0,97,-99.99,,,0.35,weatherlink.com 1.10,2013-06-29 02:59:00,
2013-06-28 23:14:00,61.9,61.0,29.53,NW,322,0.0,-999.0,97,-99.99,,,0.35,weatherlink.com 1.10,2013-06-29 03:14:00,
2013-06-28 23:29:00,61.8,61.0,29.53,NW,322,0.0,-999.0,97,-99.99,,,0.36,weatherlink.com 1.10,2013-06-29 03:29:00,
2013-06-28 23:44:00,61.9,61.0,29.53,NW,322,0.0,-999.0,97,-99.99,,,0.36,weatherlink.com 1.10,2013-06-29 03:44:00,
2013-06-28 23:59:00,61.8,61.0,29.53,NW,322,0.0,-999.0,97,-99.99,,,0.37,weatherlink.com 1.10,2013-06-29 03:59:00,